{"data":{"norad_id":54823,"epoch":"2026-09-20T22:08:15.469728Z","epoch_age_seconds":56817,"freshness":"FRESH","line1":"1 54823U 22177D   26263.92240127 -.00001200  00000+0 -34094-4 0  9995","line2":"2 54823  43.0027 113.3229 0001906 261.1737  98.8899 15.27564360206787","mean_motion":15.2756436,"eccentricity":0.0001906,"inclination_deg":43.0027,"raan_deg":113.3229,"arg_perigee_deg":261.1737,"mean_anomaly_deg":98.8899,"bstar":-3.4094e-5,"rev_number":20678,"period_min":94.267713865752,"perigee_km":481.78817722957,"apogee_km":484.40367922181,"semimajor_km":6861.2329282257,"source":"CELESTRAK","updated_at":"2026-09-21T09:00:33.132994Z"}}